Content
SEND FEEDBACK

Daily
Averages
Monthly
Summary
United States of America

MOSINEE, WISCONSIN


Home > North America > United States > Wisconsin
Elevation: 1140 feet     Latitude: 44 44N     Longitude: 089 45W

WEATHER
 
SELECT A DAY
Number of Records: 277,799;   Date Range: 1/1/95 - 10/20/14
 
SHARE

PRINT THIS DATA

[ ← Previous Day ]
WEATHER ALMANAC - JANUARY 31, 2013
[ Next Day → ]
[ °C ]   °F
Weather ElementAverageHighLow
Temperature5.9 °F12.2 °F (12:35 am)-2.2 °F (11:15 pm)
Dewpoint0.7 °F8.6 °F (12:35 am)-5.8 °F (10:15 pm)
Humidity79.5 %85 % (12:35 am)72 % (2:45 pm)
Barometer29.77 in30.04 in (11:55 pm)29.54 in (12:35 am)
Wind Speed13.5 mph18.4 mph (11:45 am)
Wind Gust26.5 mph (10:50 am)
Weather ElementAverage
Visibility9.8 mi
Wind DirectionWNW (280.8 °)

Weather ElementTotal
Precipitation---
Heating Degree Days60 (Base 65)
Averaged from 37 records on January 31, 2013
WEATHER CONDITIONS BREAKOUT
WIND DIRECTION BREAKOUT
WEATHER BY HOUR - JANUARY 31, 2013
[ °C ]   °F
Local TimeTemperatureDewpointHumidityBarometerVisibilityWind DirectionWind SpeedGust SpeedPrecipitationEventsConditions
12:35 AM12.2 °F8.6 °F85 %29.54 in10.0 miWest (270°)13.8 mphOvercast
12:55 AM12.2 °F8.6 °F85 %29.55 in10.0 miWest (280°)15.0 mphOvercast
1:15 AM10.4 °F6.8 °F85 %29.55 in10.0 miWest (280°)16.1 mph24.2 mphOvercast
1:35 AM10.4 °F6.8 °F85 %29.56 in10.0 miWest (280°)15.0 mphOvercast
1:55 AM10.4 °F5.0 °F79 %29.57 in10.0 miWest (280°)13.8 mph23.0 mphOvercast
2:15 AM10.4 °F5.0 °F79 %29.58 in7.0 miWest (280°)16.1 mph25.3 mphOvercast
2:35 AM10.4 °F5.0 °F79 %29.58 in10.0 miWest (280°)15.0 mph24.2 mphOvercast
2:55 AM10.4 °F5.0 °F79 %29.58 in10.0 miWest (280°)16.1 mph23.0 mphOvercast
3:15 AM10.4 °F5.0 °F79 %29.59 in10.0 miWest (280°)17.3 mph25.3 mphOvercast
3:35 AM8.6 °F3.2 °F79 %29.60 in10.0 miWNW (290°)12.7 mph23.0 mphOvercast
3:55 AM8.6 °F5.0 °F85 %29.60 in10.0 miWest (280°)16.1 mph21.9 mphOvercast
4:15 AM8.6 °F3.2 °F79 %29.60 in10.0 miWNW (290°)13.8 mph20.7 mphOvercast
4:35 AM8.6 °F3.2 °F79 %29.61 in10.0 miWNW (290°)13.8 mph20.7 mphOvercast
5:45 AM6.8 °F3.2 °F85 %29.62 in7.0 miWNW (290°)13.8 mph18.4 mphOvercast
6:45 AM6.8 °F1.4 °F79 %29.65 in10.0 miWest (280°)16.1 mph23.0 mphOvercast
7:50 AM6.8 °F1.4 °F79 %29.68 in10.0 miWest (280°)15.0 mph20.7 mphOvercast
8:50 AM5.0 °F-0.4 °F78 %29.71 in10.0 miWNW (290°)13.8 mph21.9 mphScattered Clouds
9:55 AM6.8 °F1.4 °F79 %29.74 in10.0 miWNW (290°)16.1 mph21.9 mphMostly Cloudy
10:50 AM6.8 °F1.4 °F79 %29.75 in10.0 miWNW (290°)16.1 mph26.5 mphMostly Cloudy
11:45 AM8.6 °F1.4 °F73 %29.76 in10.0 miWest (280°)18.4 mph25.3 mphMostly Cloudy
12:45 PM8.6 °F1.4 °F73 %29.77 in10.0 miWest (270°)13.8 mph24.2 mphMostly Cloudy
1:45 PM8.6 °F1.4 °F73 %29.79 in10.0 miWest (280°)17.3 mph24.2 mphMostly Cloudy
2:45 PM6.8 °F-0.4 °F72 %29.81 in10.0 miWest (270°)16.1 mph19.6 mphMostly Cloudy
3:45 PM6.8 °F-0.4 °F72 %29.84 in7.0 miWNW (290°)17.3 mph26.5 mphScattered Clouds
5:45 PM3.2 °F-0.4 °F85 %29.91 in10.0 miWest (280°)13.8 mph18.4 mphScattered Clouds
6:50 PM3.2 °F-2.2 °F78 %29.95 in10.0 miWest (280°)9.2 mphScattered Clouds
7:45 PM3.2 °F-2.2 °F78 %29.97 in10.0 miWNW (290°)13.8 mphClear
9:15 PM1.4 °F-4.0 °F78 %30.00 in10.0 miWNW (300°)10.4 mph16.1 mphClear
9:35 PM1.4 °F-4.0 °F78 %30.01 in10.0 miWest (280°)8.1 mphClear
9:45 PM1.4 °F-4.0 °F78 %30.01 in10.0 miWest (280°)9.2 mphClear
9:55 PM1.4 °F-4.0 °F78 %30.01 in10.0 miWest (280°)9.2 mphClear
10:15 PM-0.4 °F-5.8 °F78 %30.01 in10.0 miWest (260°)8.1 mphClear
10:35 PM-0.4 °F-5.8 °F78 %30.02 in10.0 miWest (270°)9.2 mphClear
10:55 PM-0.4 °F-5.8 °F78 %30.02 in10.0 miWest (270°)10.4 mphClear
11:15 PM-2.2 °F-5.8 °F85 %30.02 in10.0 miWest (270°)9.2 mphClear
11:35 PM-2.2 °F-5.8 °F85 %30.03 in10.0 miWest (280°)10.4 mphClear
11:55 PM-2.2 °F-5.8 °F85 %30.04 in10.0 miWest (280°)9.2 mphClear
Hourly data recorded from KCWA, located miles away from Mosinee, Wisconsin







STORIES FROM OUR PARTNERS